Flag for Bosnia-Herzegovina Weather past 2 weeks in Tuzla, Bosnia-Herzegovina

Now
70 °F

Overcast.


Feels Like: 70 °F
Forecast: 57 / 78 °F
Wind: 2 mph from North

Location: Tuzla

Current Time: Aug 21, 2014 at 6:26:05 PM

Latest Report: Aug 21, 2014 at 6:00 PM


Visibility: N/A

Pressure: 30.04 "Hg

Humidity: 100%

Dew point: 70 °F

Location of TuzlaLocation

Historic Weather in Tuzla — Graph

°F

Tuzla temperature yesterday

Maximum temperature yesterday: 84 °F (at 3:00 PM)
Minimum temperature yesterday: 57 °F (at 6:00 AM)
Average temperature yesterday: 72 °F

Past Weeks' High & Low Weather Summary

 TemperatureHumidityPressure
High95 °F (Aug 13, 3:30 PM)100% (Aug 6, 5:00 PM)30.09 "Hg (Aug 6, 5:00 PM)
Low46 °F (Aug 18, 6:00 AM)32% (Aug 11, 3:00 PM)29.77 "Hg (Aug 13, 4:00 PM)
Average73 °F80%29.96 "Hg
* Reported Aug 6 5:00 PM — Aug 21 5:00 PM, Tuzla, Weather by CustomWeather, © 2014

Note: Actual official high and low records may vary slightly from our data, if they occured in-between our weather recording intervals... More about our weather records

Advertising

Tuzla weather history for previous 24 hours

 ConditionsComfort  
Time TempWeatherWind HumidityBarometerVisibility
5:00 PM
Aug 21
70 °FOvercast.6 mph94%30.04 "HgN/A
4:30 PM70 °FPartly sunny.3 mph100%30.04 "HgN/A
4:00 PM72 °FPartly sunny.6 mph94%30.04 "HgN/A
3:30 PM70 °FPartly sunny.6 mph83%30.04 "HgN/A
3:00 PM70 °FPartly sunny.3 mph83%30.04 "HgN/A
2:30 PM68 °FPartly sunny.3 mph94%30.04 "HgN/A
2:00 PM68 °FScattered clouds.2 mph94%30.04 "HgN/A
1:30 PM66 °FScattered clouds.3 mph94%30.04 "HgN/A
1:00 PM64 °FPartly sunny.6 mph94%30.04 "HgN/A
12:30 PM63 °FSprinkles. Partly sunny.8 mph100%30.04 "HgN/A
12:00 PM63 °FThunderstorms. Partly sunny.3 mph100%30.04 "Hg4 mi
11:30 AM63 °FThunderstorms. Partly sunny.3 mph100%30.07 "Hg4 mi
11:00 AM63 °FThunderstorms. Partly sunny.10 mph100%30.07 "Hg4 mi
10:30 AM66 °FPartly sunny.14 mph94%30.04 "HgN/A
10:00 AM66 °FPassing clouds.12 mph83%30.01 "Hg4 mi
9:30 AM66 °FFog.9 mph94%30.01 "Hg3 mi
9:00 AM63 °FPassing clouds.14 mph88%29.98 "HgN/A
8:30 AM59 °FPassing clouds.2 mph100%29.92 "HgN/A
8:00 AM59 °FScattered clouds.2 mph100%29.92 "HgN/A
7:30 AM59 °FFog.3 mph100%29.92 "Hg1 mi
7:00 AM57 °FPassing clouds.1 mph100%29.92 "Hg5 mi
6:30 AM55 °FPassing clouds.1 mph100%29.92 "Hg5 mi
6:00 AM55 °FPassing clouds.3 mph100%29.92 "HgN/A
9:00 PM
Aug 20
66 °FPassing clouds.3 mph100%29.98 "HgN/A
8:00 PM68 °FThunderstorms. Partly sunny.6 mph100%29.98 "HgN/A
7:30 PM68 °FThunderstorms. Partly sunny.2 mph100%29.98 "HgN/A
7:00 PM68 °FScattered clouds.2 mph100%29.95 "HgN/A
6:30 PM68 °FSprinkles. Scattered clouds.9 mph100%29.98 "HgN/A
6:00 PM72 °FScattered clouds.3 mph100%29.95 "HgN/A
Weather by CustomWeather, © 2014

See weather overviewHow to use our weather pages